Hampton, VA

10:16 PM EDT on August 30, 2016 (GMT -0400)
Langley Air Force Base

Weather History for KLFI - February, 2013

Change the Weather History Date:

Tuesday, February 19, 2013

  Actual Average Record
Temperature  
Mean Temperature 47 °F -  
Max Temperature 59 °F 54 °F 74 °F (1939)
Min Temperature 35 °F 36 °F 11 °F (2015)
Degree Days  
Heating Degree Days 18    
Moisture  
Dew Point 43 °F    
Average Humidity 77    
Maximum Humidity 94    
Minimum Humidity 58    
Precipitation  
Precipitation 0.03 in - - ()
Sea Level Pressure  
Sea Level Pressure 29.95 in    
Wind  
Wind Speed 13 mph (SW)    
Max Wind Speed 20 mph    
Max Gust Speed 29 mph    
Visibility 10 miles    
Events Rain    
Averages and records for this station are not official NWS values.
T = Trace of Precipitation, MM = Missing Value Source: NWS Daily Summary

Daily Weather History Graph

Daily Weather History Graph

Search for Another Location

Airport or City:

Trip Planner

Search our weather history database for the weather conditions in past years. The results will help you decide how hot, cold, wet, or windy it might be!

Date:

Astronomy

Feb. 19, 2013 Rise Set
Actual Time 6:49 AM EST 5:49 PM EST
Civil Twilight 6:22 AM EST 6:16 PM EST
Nautical Twilight 5:52 AM EST 6:46 PM EST
Astronomical Twilight 5:22 AM EST 7:16 PM EST
Moon 12:23 PM EST (2/19) 2:14 AM EST (2/19)
Length of Visible Light 11h 53m
Length of Day
11h 00m
Waxing Gibbous, 67% of the Moon is Illuminated
Feb 19
Waxing Gibbous
Feb 25
Full
Mar 4
Last Quarter
Mar 11
New
Mar 19
First Quarter

Hourly Weather History & Observations

Time (EST) Temp. Windchill Dew Point Humidity Pressure Visibility Wind Dir Wind Speed Gust Speed Precip Events Conditions
12:55 AM 38.1 °F 31.7 °F 24.6 °F 58% 30.28 in 10.0 mi SSW 9.2 mph - N/A   Clear
1:55 AM 37.2 °F 30.6 °F 25.3 °F 62% 30.25 in 10.0 mi South 9.2 mph - N/A   Clear
2:55 AM 37.2 °F 29.6 °F 24.6 °F 60% 30.22 in 10.0 mi South 11.5 mph - N/A   Clear
3:55 AM 36.3 °F 28.0 °F 25.7 °F 65% 30.21 in 10.0 mi SSW 12.7 mph - N/A   Clear
4:55 AM 35.4 °F 27.3 °F 27.1 °F 72% 30.19 in 10.0 mi SSW 11.5 mph - N/A   Clear
5:55 AM 36.3 °F 30.1 °F 29.3 °F 76% 30.17 in 10.0 mi South 8.1 mph - N/A   Clear
6:55 AM 37.2 °F 30.0 °F 31.3 °F 79% 30.15 in 10.0 mi South 10.4 mph - N/A   Clear
7:55 AM 40.3 °F 35.5 °F 33.8 °F 78% 30.13 in 10.0 mi South 6.9 mph - N/A   Clear
8:55 AM 46.9 °F - 37.6 °F 70% 30.11 in 10.0 mi South 11.5 mph - N/A   Mostly Cloudy
9:55 AM 52.3 °F - 40.1 °F 63% 30.08 in 10.0 mi South 12.7 mph - N/A   Overcast
10:55 AM 53.4 °F - 41.5 °F 64% 30.06 in 10.0 mi SSW 17.3 mph - N/A   Overcast
11:55 AM 55.9 °F - 43.3 °F 63% 30.01 in 10.0 mi South 15.0 mph - N/A   Mostly Cloudy
12:55 PM 58.6 °F - 44.6 °F 60% 29.95 in 10.0 mi South 16.1 mph 24.2 mph N/A   Overcast
1:23 PM 59.0 °F - 44.6 °F 59% 29.92 in 7.0 mi SSW 15.0 mph - N/A Rain Light Rain
1:25 PM 59.0 °F - 44.6 °F 59% 29.93 in 10.0 mi SSW 16.1 mph - N/A Rain Light Rain
1:55 PM 55.6 °F - 47.8 °F 75% 29.92 in 7.0 mi SSW 16.1 mph 24.2 mph 0.00 in Rain Light Rain
2:19 PM 53.6 °F - 48.2 °F 82% 29.91 in 9.0 mi SSW 18.4 mph 27.6 mph N/A Rain Light Rain
2:34 PM 53.6 °F - 50.0 °F 88% 29.89 in 10.0 mi SSW 17.3 mph - N/A   Overcast
2:42 PM 55.4 °F - 50.0 °F 82% 29.88 in 10.0 mi SSW 13.8 mph - N/A   Overcast
2:55 PM 54.9 °F - 49.8 °F 83% 29.87 in 10.0 mi SSW 16.1 mph - 0.01 in   Overcast
3:55 PM 55.6 °F - 49.6 °F 80% 29.84 in 10.0 mi SSW 16.1 mph - N/A   Overcast
4:01 PM 55.4 °F - 50.0 °F 82% 29.83 in 10.0 mi SSW 17.3 mph - N/A   Overcast
4:10 PM 55.4 °F - 50.0 °F 82% 29.83 in 10.0 mi SSW 19.6 mph 24.2 mph N/A   Overcast
4:18 PM 55.4 °F - 50.0 °F 82% 29.83 in 10.0 mi SSW 15.0 mph - N/A Rain Light Rain
4:26 PM 55.4 °F - 50.0 °F 82% 29.82 in 10.0 mi SSW 19.6 mph 26.5 mph N/A Rain Light Rain
4:37 PM 55.4 °F - 50.0 °F 82% 29.82 in 10.0 mi SSW 19.6 mph 28.8 mph N/A   Overcast
4:42 PM 55.4 °F - 50.0 °F 82% 29.81 in 10.0 mi SSW 19.6 mph 26.5 mph N/A   Overcast
4:55 PM 55.4 °F - 48.9 °F 79% 29.81 in 10.0 mi SSW 18.4 mph 27.6 mph 0.00 in   Overcast
5:55 PM 55.8 °F - 48.0 °F 75% 29.80 in 10.0 mi SW 19.6 mph 26.5 mph N/A   Overcast
6:26 PM 55.4 °F - 48.2 °F 77% 29.81 in 10.0 mi WSW 16.1 mph - N/A Rain Light Rain
7:15 PM 51.8 °F - 50.0 °F 94% 29.83 in 10.0 mi WSW 18.4 mph - N/A   Overcast
7:25 PM 51.8 °F - 50.0 °F 94% 29.83 in 10.0 mi WSW 19.6 mph - N/A   Mostly Cloudy
7:26 PM 51.8 °F - 50.0 °F 94% 29.83 in 10.0 mi WSW 18.4 mph - N/A Rain Light Rain
7:35 PM 51.8 °F - 48.2 °F 88% 29.84 in 10.0 mi West 17.3 mph - N/A   Mostly Cloudy
7:55 PM 50.7 °F - 48.0 °F 90% 29.84 in 10.0 mi WSW 16.1 mph - 0.02 in   Partly Cloudy
8:55 PM 49.5 °F - 45.7 °F 87% 29.86 in 10.0 mi West 13.8 mph 21.9 mph N/A   Partly Cloudy
9:55 PM 47.1 °F - 43.7 °F 88% 29.87 in 10.0 mi WSW 10.4 mph - N/A   Clear
10:55 PM 46.2 °F 39.8 °F 41.7 °F 84% 29.88 in 10.0 mi West 15.0 mph - N/A   Clear
11:55 PM 44.8 °F 38.3 °F 38.7 °F 79% 29.88 in 10.0 mi West 13.8 mph - N/A   Clear